Weather in Byala

Bulgaria     42°52′16″N   27°53′19″E
temp.,
°C
wind,
m/s
gust,
m/s
humid.,
%
clouds,
%
prec.,
mm/h
press.,
hPa
HPBL,
m
20 june, sun
sun2000:00+19ne338534 0.0 1012346
03:00+19n448616 0.0 1012385
06:00+18n568851 0.7 1012426
09:00+19nnw448350 0.9 1012332
12:00+21n337652 0.1 1012364
15:00+20sse21755 0.4 1011135
18:00+21ssw11724 0.2 1011271
21:00+21s00792 0.3 101133
21 june, mon
mon2100:00+20wnw11825 0.0 101221
03:00+20w22833 0.0 101164
06:00+19nw338314 0.0 1011115
09:00+20nne228195 0.0 1012174
12:00+20se11809 0.0 1013206
15:00+21sse327798 0.0 1012208
18:00+21sse3377100 0.4 1011181
21:00+21sse3381100 1.1 101175
22 june, tue
tue2200:00+21sw2284100 0.0 101236
03:00+20ssw228313 0.0 101139
06:00+20wsw1182100 0.0 101133
09:00+21wsw01815 0.0 101249
12:00+21s22793 0.0 1012171
15:00+22se33773 0.0 1012147
18:00+23s44785 0.0 1012106
21:00+22s33790 0.0 101231
23 june, wed
wed2300:00+22ssw33805 0.1 101319
03:00+21wsw23845 0.3 101324
06:00+21wnw33845 0.0 101223
09:00+22nne01830 0.0 101436
12:00+23sse21783 0.0 1014132
15:00+24sse43763 0.0 1014180
18:00+24s457812 0.1 101365
21:00+23sw338540 1.1 101326
24 june, thu
thu2400:00+22wnw338991 2.4 101538
03:00+22nnw45874 2.5 101452
06:00+21nw34790 0.0 101555
09:00+22nnw33770 0.0 101651
12:00+23ene11740 0.0 101685
15:00+23sse22750 0.0 1015131
18:00+23ese22780 0.6 101573
21:00+22nnw00840 1.4 101613